Location: ?????
(31.8092°N, 35.2590°E)
Time: 19:43:57
(UTC+00:00)

ERS-1 Rocket - Pass Details

Date: 20 June 2021
Orbit: 752 x 758 km, 98.4° (Epoch: 01 August)

Event Time Altitude Azimuth Distance (km) Brightness Sun altitude
Exits shadow 18:44:08 28° 86° (E) 1,397 4.0 -20.5°
Maximum altitude 18:44:52 29° 71° (ENE) 1,363 4.1 -20.6°
Drops below altitude 10° 18:49:10 10° 12° (NNE) 2,291 5.9 -21.2°
Sets 18:51:43 0° 1° (N) 3,220 6.9 -21.6°
